Change the Weather History Date:

Saturday, May 10, 2014

  Actual Average Record
Temperature  
Mean Temperature 56 °F -  
Max Temperature 72 °F 73 °F 94 °F (1962)
Min Temperature 41 °F 44 °F 27 °F (1981)
Degree Days  
Heating Degree Days 8    
Growing Degree Days 6 (Base 50)    
Moisture  
Dew Point 38 °F    
Average Humidity 55    
Maximum Humidity 86    
Minimum Humidity 22    
Precipitation  
Precipitation 0.00 in - - ()
Sea Level Pressure  
Sea Level Pressure 29.79 in    
Wind  
Wind Speed 9 mph (WNW)    
Max Wind Speed 21 mph    
Max Gust Speed 29 mph    
Visibility 10 miles    
Events Rain    
Averages and records for this station are not official NWS values.
T = Trace of Precipitation, MM = Missing Value Source: NWS Daily Summary

Daily Weather History Graph

Daily Weather History Graph

Search for Another Location

Airport or City:

Trip Planner

Search our weather history database for the weather conditions in past years. The results will help you decide how hot, cold, wet, or windy it might be!

Date:

Astronomy

May. 10, 2014 Rise Set
Actual Time 5:34 AM MDT 7:53 PM MDT
Civil Twilight 5:03 AM MDT 8:24 PM MDT
Nautical Twilight 4:25 AM MDT 9:02 PM MDT
Astronomical Twilight 3:43 AM MDT 9:45 PM MDT
Moon 3:49 PM MDT (5/10) 3:10 AM MDT (5/10)
Length of Visible Light 15h 21m
Length of Day
14h 19m
Waxing Gibbous, 82% of the Moon is Illuminated
May 10
Waxing Gibbous
May 14
Full
May 21
Last Quarter
May 28
New
Jun 5
First Quarter

Hourly Weather History & Observations

Time (MDT) Temp. Windchill Dew Point Humidity Pressure Visibility Wind Dir Wind Speed Gust Speed Precip Events Conditions
12:15 AM 45.9 °F 43.6 °F 40.6 °F 82% 29.79 in 10.0 mi West 4.6 mph - N/A   Scattered Clouds
12:35 AM 46.6 °F - 41.5 °F 83% 29.79 in 10.0 mi WNW 5.8 mph - N/A   Mostly Cloudy
12:55 AM 47.3 °F - 41.9 °F 82% 29.79 in 10.0 mi WSW 3.5 mph - N/A   Mostly Cloudy
1:15 AM 48.6 °F - 42.4 °F 79% 29.79 in 10.0 mi WSW 8.1 mph - N/A   Overcast
1:35 AM 49.6 °F - 43.0 °F 78% 29.79 in 10.0 mi WSW 15.0 mph - N/A   Overcast
1:55 AM 50.4 °F - 42.6 °F 75% 29.78 in 10.0 mi WSW 8.1 mph - N/A   Scattered Clouds
2:15 AM 49.1 °F - 42.6 °F 78% 29.77 in 10.0 mi WNW 4.6 mph - N/A   Scattered Clouds
2:35 AM 49.8 °F - 42.8 °F 77% 29.76 in 10.0 mi West 4.6 mph - N/A   Mostly Cloudy
2:55 AM 48.9 °F - 42.6 °F 79% 29.77 in 10.0 mi West 9.2 mph - N/A   Scattered Clouds
3:15 AM 50.0 °F - 41.2 °F 72% 29.77 in 10.0 mi West 9.2 mph - N/A   Clear
3:35 AM 45.1 °F 40.8 °F 39.6 °F 81% 29.77 in 10.0 mi West 8.1 mph - N/A   Clear
3:55 AM 44.1 °F 39.0 °F 39.4 °F 84% 29.77 in 10.0 mi West 9.2 mph - N/A   Clear
4:15 AM 42.4 °F 37.0 °F 37.8 °F 83% 29.77 in 10.0 mi West 9.2 mph - N/A   Clear
4:35 AM 42.8 °F 37.5 °F 38.5 °F 85% 29.77 in 10.0 mi WSW 9.2 mph - N/A   Clear
4:55 AM 41.5 °F 37.1 °F 37.4 °F 85% 29.78 in 10.0 mi West 6.9 mph - N/A   Clear
5:15 AM 41.2 °F 36.0 °F 37.4 °F 86% 29.79 in 10.0 mi West 8.1 mph - N/A   Clear
5:35 AM 42.8 °F 38.6 °F 38.5 °F 85% 29.80 in 10.0 mi West 6.9 mph - N/A   Clear
5:55 AM 42.6 °F 39.0 °F 37.6 °F 82% 29.80 in 10.0 mi West 5.8 mph - N/A   Clear
6:15 AM 43.0 °F 40.3 °F 37.6 °F 81% 29.80 in 10.0 mi West 4.6 mph - N/A   Clear
6:35 AM 44.2 °F 41.0 °F 37.8 °F 78% 29.81 in 10.0 mi WSW 5.8 mph - N/A   Clear
6:55 AM 46.8 °F - 39.0 °F 74% 29.81 in 10.0 mi West 5.8 mph - N/A   Clear
7:15 AM 49.3 °F - 39.2 °F 68% 29.82 in 10.0 mi West 4.6 mph - N/A   Clear
7:35 AM 51.3 °F - 40.1 °F 66% 29.83 in 10.0 mi West 9.2 mph - N/A   Clear
7:55 AM 54.5 °F - 39.4 °F 57% 29.83 in 10.0 mi WNW 10.4 mph - N/A   Clear
8:15 AM 57.4 °F - 37.6 °F 48% 29.83 in 10.0 mi WNW 16.1 mph - N/A   Clear
8:35 AM 59.4 °F - 35.8 °F 41% 29.82 in 10.0 mi WNW 18.4 mph 24.2 mph N/A   Clear
8:55 AM 60.3 °F - 34.7 °F 38% 29.82 in 10.0 mi WNW 18.4 mph 25.3 mph N/A   Clear
9:15 AM 60.6 °F - 35.2 °F 39% 29.82 in 10.0 mi NW 17.3 mph 21.9 mph N/A   Clear
9:35 AM 61.9 °F - 36.0 °F 38% 29.82 in 10.0 mi NW 17.3 mph - N/A   Clear
9:55 AM 62.6 °F - 34.0 °F 34% 29.82 in 10.0 mi NW 15.0 mph 20.7 mph N/A   Clear
10:15 AM 63.5 °F - 34.3 °F 34% 29.82 in 10.0 mi NW 10.4 mph 16.1 mph N/A   Clear
10:35 AM 63.9 °F - 32.9 °F 31% 29.82 in 10.0 mi NW 13.8 mph 20.7 mph N/A   Clear
10:55 AM 64.6 °F - 33.3 °F 31% 29.82 in 10.0 mi WNW 12.7 mph 18.4 mph N/A   Clear
11:15 AM 65.3 °F - 32.4 °F 29% 29.81 in 10.0 mi NW 11.5 mph - N/A   Clear
11:35 AM 66.2 °F - 33.3 °F 29% 29.80 in 10.0 mi WNW 13.8 mph 20.7 mph N/A   Clear
11:55 AM 66.9 °F - 33.1 °F 28% 29.80 in 10.0 mi WNW 11.5 mph 19.6 mph N/A   Clear
12:15 PM 66.9 °F - 33.1 °F 28% 29.79 in 10.0 mi WNW 12.7 mph 19.6 mph N/A   Clear
12:35 PM 68.7 °F - 34.2 °F 28% 29.79 in 10.0 mi WNW 11.5 mph 20.7 mph N/A   Clear
12:55 PM 69.3 °F - 31.5 °F 25% 29.79 in 10.0 mi WNW 12.7 mph 24.2 mph N/A   Clear
1:15 PM 69.6 °F - 31.1 °F 24% 29.78 in 10.0 mi West 5.8 mph - N/A   Clear
1:35 PM 70.2 °F - 31.1 °F 24% 29.77 in 10.0 mi West 6.9 mph 16.1 mph N/A   Clear
1:55 PM 68.4 °F - 31.1 °F 25% 29.77 in 10.0 mi NW 9.2 mph - N/A   Clear
2:15 PM 71.2 °F - 31.5 °F 23% 29.77 in 10.0 mi NW 6.9 mph - N/A   Clear
2:35 PM 70.9 °F - 29.5 °F 22% 29.76 in 10.0 mi West 4.6 mph - N/A   Clear
2:55 PM 71.2 °F - 31.3 °F 23% 29.76 in 10.0 mi West 4.6 mph - N/A   Clear
3:15 PM 72.1 °F - 30.7 °F 22% 29.75 in 10.0 mi NW 4.6 mph - N/A   Clear
3:35 PM 71.2 °F - 30.0 °F 22% 29.74 in 10.0 mi SSW 5.8 mph - N/A   Clear
3:55 PM 71.6 °F - 34.2 °F 25% 29.73 in 10.0 mi North 6.9 mph - N/A   Clear
4:15 PM 70.3 °F - 32.5 °F 25% 29.73 in 10.0 mi Calm Calm - N/A   Scattered Clouds
4:35 PM 70.0 °F - 32.2 °F 25% 29.73 in 10.0 mi NW 3.5 mph - N/A   Mostly Cloudy
4:55 PM 69.1 °F - 34.2 °F 28% 29.74 in 10.0 mi NNE 5.8 mph - N/A   Overcast
5:15 PM 68.5 °F - 31.6 °F 25% 29.75 in 10.0 mi Calm Calm - N/A   Overcast
5:35 PM 67.5 °F - 33.1 °F 28% 29.77 in 10.0 mi NW 5.8 mph 17.3 mph N/A Rain Rain
5:55 PM 65.8 °F - 34.5 °F 31% 29.78 in 5.0 mi West 13.8 mph 24.2 mph N/A   Haze
6:15 PM 62.1 °F - 39.9 °F 44% 29.79 in 10.0 mi NW 16.1 mph 27.6 mph N/A   Overcast
6:35 PM 61.2 °F - 40.5 °F 47% 29.80 in 10.0 mi NW 11.5 mph - N/A   Overcast
6:55 PM 60.8 °F - 41.2 °F 48% 29.80 in 10.0 mi NW 11.5 mph - N/A   Overcast
7:15 PM 59.4 °F - 43.0 °F 55% 29.80 in 10.0 mi NNW 10.4 mph - N/A   Overcast
7:55 PM 57.2 °F - 44.8 °F 63% 29.81 in 10.0 mi NNW 17.3 mph 20.7 mph N/A   Overcast
8:15 PM 56.5 °F - 44.8 °F 65% 29.80 in 10.0 mi NNW 18.4 mph 23.0 mph N/A   Overcast
8:35 PM 55.4 °F - 45.5 °F 69% 29.81 in 10.0 mi NNW 16.1 mph - N/A Rain Light Rain
8:55 PM 54.5 °F - 46.0 °F 73% 29.82 in 10.0 mi North 13.8 mph - N/A   Light Drizzle
9:15 PM 54.1 °F - 46.4 °F 75% 29.83 in 10.0 mi North 11.5 mph 20.7 mph N/A   Light Drizzle
9:35 PM 53.4 °F - 46.6 °F 78% 29.83 in 10.0 mi North 15.0 mph - N/A   Light Drizzle
9:55 PM 53.1 °F - 46.4 °F 78% 29.83 in 10.0 mi North 16.1 mph - N/A   Overcast
10:15 PM 53.2 °F - 46.4 °F 78% 29.83 in 10.0 mi North 17.3 mph - N/A   Overcast
10:35 PM 53.1 °F - 45.7 °F 76% 29.83 in 10.0 mi North 18.4 mph 24.2 mph N/A   Light Drizzle
10:55 PM 52.2 °F - 46.6 °F 81% 29.82 in 10.0 mi North 20.7 mph 28.8 mph N/A   Light Drizzle
11:15 PM 51.1 °F - 46.8 °F 85% 29.80 in 10.0 mi North 20.7 mph 27.6 mph N/A Rain Light Rain
11:35 PM 50.9 °F - 46.9 °F 86% 29.79 in 10.0 mi North 18.4 mph 25.3 mph N/A Rain Light Rain
11:55 PM 50.9 °F - 46.8 °F 86% 29.80 in 10.0 mi North 12.7 mph - N/A   Overcast